Location: Boiro
(42.6475°N, 8.8834°W)
Time: 11:52:47
(UTC+01:00)

Vanguard 2 Rocket - Pass Details

Date: 12 December 2021
Orbit: 554 x 3325 km, 32.9° (Epoch: 19 January)

Event Time Altitude Azimuth Distance (km) Brightness Sun altitude
Rises 19:32:01 0° 253° (WSW) 2,911 11.4 -15.9°
Reaches altitude 10° 19:34:12 10° 242° (WSW) 2,157 10.1 -16.3°
Maximum altitude 19:38:32 31° 180° (S) 1,509 8.1 -17.0°
Enters shadow 19:44:46 11° 122° (ESE) 3,196 9.3 -18.1°
